This is the latest recevied weather packets stored in our database for station/object KK7MLS-13. If no packets are shown the sender has not sent any weather packets the latest 10 day(s).
| Time | Temp. | Humidity | Pressure | Rain* | Wind** | Luminosity | Snow |
|---|---|---|---|---|---|---|---|
| 1788488453 | 14.44° C | 86% | 1010 hPa | 0 mm | - | 11 W/m² | - |
| 1788488148 | 14.44° C | 86% | 1009.9 hPa | 0 mm | - | 15 W/m² | - |
| 1788487843 | 14.44° C | 83% | 1009.9 hPa | 0 mm | - | 18 W/m² | - |
| 1788487538 | 14.44° C | 83% | 1010.1 hPa | 0 mm | - | 22 W/m² | - |
| 1788487232 | 15° C | 84% | 1010 hPa | 0 mm | - | 27 W/m² | - |
| 1788486927 | 15° C | 82% | 1010.1 hPa | 0 mm | - | 28 W/m² | - |
| 1788486626 | 15° C | 84% | 1010 hPa | 0 mm | - | 34 W/m² | - |
| 1788486321 | 15° C | 82% | 1009.9 hPa | 0 mm | - | 40 W/m² | - |
| 1788486017 | 15° C | 82% | 1010 hPa | 0 mm | - | 38 W/m² | - |
| 1788485713 | 15° C | 83% | 1010 hPa | 0 mm | - | 42 W/m² | - |
| 1788485409 | 15° C | 82% | 1010 hPa | 0 mm | - | 62 W/m² | - |
| 1788485109 | 15.56° C | 82% | 1010 hPa | 0 mm | - | 64 W/m² | - |
| 1788484803 | 15.56° C | 81% | 1010.1 hPa | 0 mm | - | 74 W/m² | - |
| 1788484497 | 15.56° C | 81% | 1009.8 hPa | 0 mm | - | 76 W/m² | - |
| 1788484193 | 15.56° C | 80% | 1010.1 hPa | 0 mm | - | 87 W/m² | - |
| 1788483889 | 16.11° C | 78% | 1010 hPa | 0 mm | - | 104 W/m² | - |
| 1788483589 | 16.67° C | 75% | 1010.1 hPa | 0 mm | - | 120 W/m² | - |
| 1788483284 | 17.78° C | 74% | 1010 hPa | 0 mm | - | 144 W/m² | - |
| 1788482979 | 17.22° C | 73% | 1010.1 hPa | 0 mm | - | 237 W/m² | - |
| 1788482676 | 16.67° C | 80% | 1010 hPa | 0 mm | - | 201 W/m² | - |
| 1788482375 | 15° C | 86% | 1009.9 hPa | 1.78 mm | - | 245 W/m² | - |
| 1788482071 | 13.89° C | 88% | 1010 hPa | 1.78 mm | - | 209 W/m² | - |
| 1788481766 | 13.89° C | 85% | 1010.1 hPa | 0 mm | - | 58 W/m² | - |
| 1788481463 | 13.89° C | 84% | 1010 hPa | 0 mm | - | 50 W/m² | - |
| 1788481161 | 13.89° C | 83% | 1010.1 hPa | 0 mm | - | 47 W/m² | - |
* Rain latest hour (hover to see other rain measurements)
** Current wind speed in m/s (hover to see current wind gust speed)